Location: *
(9.1500°S, 13.8333°E)
Time: 19:43:53
(UTC+00:00)

Daily predictions for brighter satellites

Satellite Brightness Start Highest point End
(mag) Time Altitude Azimuth Time Altitude Azimuth Time Altitude Azimuth
USA 81 4.3 17:15:12 10° NNE 17:20:13 47° E 17:25:17 10° SSE
ARIANE R/B 3.5 17:17:03 10° W 17:20:28 73° N 17:26:59 10° E
Cosmos 1092 Rocket 4.0 17:15:52 10° N 17:22:03 86° E 17:28:20 10° S
Cosmos 1763 Rocket 4.0 17:17:48 10° NNW 17:23:03 69° WSW 17:28:16 10° S
CZ-3B R/B 3.5 17:05:23 10° WNW 17:24:05 90° SSW 17:31:20 10° ESE
Cosmos 2195 Rocket 4.5 17:18:52 10° N 17:25:01 70° E 17:31:08 10° S
SEDSat Delta rocket 4.2 17:21:23 10° WSW 17:25:24 42° NNW 17:29:50 10° NE
Cosmos 1707 Rocket 3.6 17:21:30 10° N 17:25:48 60° E 17:30:05 10° SSE
CZ-3A R/B 4.2 17:24:41 10° N 17:26:52 15° NE 17:30:41 10° E
SL-4 R/B 2.5 17:22:30 10° NW 17:27:20 81° SW 17:32:03 10° SSE
Geosat FO 4.4 17:24:49 10° NNE 17:28:19 75° ESE 17:31:41 10° SSW
Okean-O 3.2 17:26:55 10° S 17:31:19 62° WSW 17:35:40 10° NNW
Cosmos 1777 Rocket 4.3 17:26:49 10° SSW 17:32:02 76° WNW 17:37:15 10° N
Gbstr 26 Del rocket 4.1 17:29:26 10° WNW 17:32:54 36° SW 17:36:27 10° SSE
Cosmos 2297 3.7 17:27:20 10° NNW 17:33:04 83° ENE 17:38:49 10° SSE
PSLV R/B 4.2 17:34:08 10° WNW 17:36:37 32° SW 17:39:07 10° SSE
Cosmos 1782 3.2 17:34:05 10° N 17:38:00 68° W 17:41:58 10° S
Meteor 2-6 Rocket 4.4 17:36:01 10° N 17:41:53 63° E 17:47:44 10° SSE
Cosmos 1943 Rocket 3.4 17:40:47 10° NNE 17:44:57 21° ENE 17:48:01 14° ESE
ATLAS 5 CENTAUR R/B 3.4 17:40:27 10° WSW 17:45:40 47° S 18:01:05 16° ESE
Centaur D-1AR AC-40 3.9 17:42:27 10° SW 17:46:39 31° SSE 17:55:19 15° ESE
CZ-4 R/B 1.3 17:43:09 10° SSE 17:47:14 65° E 17:51:13 10° N
Cosmos 841 Rocket 3.9 17:42:50 10° NNW 17:48:02 70° WSW 17:53:18 10° S
Cosmos 1400 Rocket 3.3 17:45:31 10° NNE 17:49:02 34° E 17:52:35 10° SSE
ATLAS 5 CENTAUR R/B 3.7 17:44:41 10° NW 17:51:24 49° WSW 17:58:09 10° S
ARIANE 5 R/B 3.0 17:51:24 10° NW 17:52:58 18° NNE 17:54:51 12° NE
Ariane Rocket 4.1 17:50:58 15° ESE 17:53:41 23° E 17:57:36 10° NNE
YAOGAN 6 2.6 17:50:17 10° SSE 17:53:42 51° E 17:57:05 10° N
Meteor 1-10 Rocket 4.3 17:49:23 10° N 17:55:17 77° E 18:01:08 10° S
YAOGAN 1 2.6 17:51:32 10° SSE 17:55:49 58° E 18:00:03 10° N
Cosmos 1812 3.6 17:56:26 10° NNE 17:59:45 28° E 18:00:30 26° ESE
Sylda 4400 4.5 17:50:22 10° W 18:00:29 66° N 18:03:06 23° ENE
Aurora 2 Rocket 4.2 17:55:56 10° W 18:00:53 29° SSW 18:03:54 14° SSE
NOSS 3-2 (A) 4.3 17:55:23 10° N 18:03:46 60° ENE 18:12:01 10° SE
ADEOS Rocket 4.0 17:58:46 10° NE 18:04:58 33° ESE 18:11:35 10° SSE
deb Ariane 4.4 18:03:38 10° NW 18:05:23 17° N 18:07:03 13° NE
ARIANE DEB (SYLDA) 2.7 18:02:10 10° W 18:05:45 73° N 18:10:08 22° E
Maqsat-H 2.9 18:01:50 10° W 18:05:46 60° N 18:13:49 17° ENE
FengYun 1-2 T 4.2 18:01:14 10° SSE 18:06:45 90° ENE 18:12:14 10° NNW
ARIANE 5 R/B 3.2 17:46:31 10° W 18:06:45 49° NNW 18:09:34 19° NE
Cosmos 2266 Rocket 4.4 18:05:18 10° NNE 18:10:47 37° E 18:16:09 11° SSE
GPS 2-14 Rocket1 3.6 18:08:19 10° W 18:12:04 40° SSW 18:13:32 28° SSE
Cosmos 1869 Rocket 3.8 18:07:55 10° S 18:12:16 70° W 18:16:33 10° N
CZ-3 Stage 3 4.0 17:45:29 10° WSW 18:12:20 79° SSE 18:15:09 27° ENE
Meteor 1-27 Rocket 3.7 18:06:53 10° N 18:12:27 61° E 18:17:56 10° SSE
CZ-2C R/B 4.2 18:08:18 10° N 18:12:45 60° WNW 18:17:10 10° SSW
ARIANE 5 DEB (SYLDA) 4.5 18:09:23 10° WNW 18:13:35 40° N 18:17:33 21° ENE
GPS 2-17 Rocket1 3.5 18:10:23 10° W 18:14:52 53° SSW 18:16:44 32° SE
Cosmos 1833 Rocket 3.4 18:11:50 10° SSE 18:16:18 30° ESE 18:16:18 30° ESE
CSL-04 Debris 4.3 18:13:00 10° S 18:18:28 75° WSW 18:23:53 10° NNW
CENTAUR R/B 3.8 18:13:45 10° N 18:21:19 34° ENE 18:23:21 30° E
NOAA 11 4.4 18:22:21 34° SE 18:24:07 46° E 18:29:20 10° N
ARIANE 5 R/B 3.7 18:04:45 10° W 18:24:35 42° NNW 18:26:58 25° NE
Cosmos 1553 Rocket 4.2 18:20:26 10° SSE 18:26:15 45° E 18:32:05 10° NNE
SWIFT 3.8 18:24:48 10° SW 18:27:55 23° S 18:27:55 23° S
Cosmos 1862 Rocket 4.4 18:24:31 10° NNW 18:28:52 52° W 18:33:14 10° S
Cosmos 990 Rocket 4.0 18:27:30 10° S 18:32:41 57° ESE 18:33:34 50° ENE
Cosmos 1655 Rocket 4.3 18:26:47 10° N 18:33:02 71° W 18:39:25 10° S
CZ-2D R/B 3.1 18:34:01 86° S 18:34:06 88° WSW 18:37:58 10° NNW
Cosmos 1417 Rocket 4.4 18:31:58 10° S 18:38:07 59° E 18:44:10 10° NNE
Cosmos 2369 Rocket 2.0 18:34:12 10° N 18:39:46 77° ENE 18:41:09 52° SSE
ARIANE 5 R/B 3.2 18:38:46 10° WNW 18:40:57 24° NW 18:40:57 24° NW
Cosmos 2263 4.4 18:39:35 10° N 18:44:10 50° NE 18:44:10 50° NE
BREEZE-M DEB (TANK) 4.3 18:45:44 10° WNW 18:49:18 46° SW 19:01:52 10° SSE
Atlas Centaur 2 4.2 18:53:11 10° N 18:53:34 11° N 18:53:34 11° N
ATLAS 3B R/B 2.6 18:52:30 10° NNW 18:59:28 69° ENE 18:59:28 69° ENE
Cosmos 1943 Rocket 4.0 19:23:40 10° NW 19:28:22 27° WSW 19:29:40 25° SW
CZ-3B R/B 4.1 19:41:57 10° W 19:47:12 21° SW 19:47:12 21° SW
CZ-3C R/B 4.1 19:56:53 10° WNW 20:06:25 83° NNE 20:06:47 82° NE
CENTAUR R/B 4.3 20:04:06 10° NW 20:10:38 36° W 20:10:38 36° W
